"Period start","avg(HW err(1)/warn(2) (#))","avg(Visibility (m))","avg(Weather code (#))","avg(Precip intensity (mm/h))","min(HW err(1)/warn(2) (#))","max(HW err(1)/warn(2) (#))","std(HW err(1)/warn(2) (#))","med(HW err(1)/warn(2) (#))","min(Visibility (m))","max(Visibility (m))","std(Visibility (m))","med(Visibility (m))","min(Weather code (#))","max(Weather code (#))","std(Weather code (#))","med(Weather code (#))","min(Precip intensity (mm/h))","max(Precip intensity (mm/h))","std(Precip intensity (mm/h))","med(Precip intensity (mm/h))"
2014-09-09 00:00:00,2,40106,0,0.00,2,2,0,2,24312,50000,8907,40850,0,0,0,0,0.00,0.00,0.00,0.00
2014-09-09 00:10:00,2,40110,0,0.00,2,2,0,2,29548,48995,7049,42223,0,0,0,0,0.00,0.00,0.00,0.00
2014-09-09 00:20:00,2,43085,0,0.00,2,2,0,2,36896,50000,5490,40346,0,0,0,0,0.00,0.00,0.00,0.00
2014-09-09 00:30:00,2,41852,0,0.00,2,2,0,2,33937,50000,4796,41237,0,0,0,0,0.00,0.00,0.00,0.00
2014-09-09 00:40:00,2,41579,0,0.00,2,2,0,2,34604,48830,4966,42008,0,0,0,0,0.00,0.00,0.00,0.00
2014-09-09 00:50:00,2,41463,0,0.00,2,2,0,2,29711,50000,6811,44031,0,0,0,0,0.00,0.00,0.00,0.00
2014-09-09 01:00:00,2,39972,0,0.00,2,2,0,2,30725,50000,6979,40743,0,0,0,0,0.00,0.00,0.00,0.00
2014-09-09 01:10:00,2,41795,0,0.00,2,2,0,2,29876,50000,5715,42586,0,0,0,0,0.00,0.00,0.00,0.00
2014-09-09 01:20:00,2,37324,0,0.00,2,2,0,2,24900,50000,8684,37772,0,0,0,0,0.00,0.00,0.00,0.00
2014-09-09 01:30:00,2,38259,0,0.00,2,2,0,2,26217,50000,7263,37244,0,0,0,0,0.00,0.00,0.00,0.00
2014-09-09 01:40:00,2,35144,0,0.00,2,2,0,2,24440,48058,6589,34896,0,0,0,0,0.00,0.00,0.00,0.00
2014-09-09 01:50:00,2,41879,0,0.00,2,2,0,2,32148,49927,4998,43192,0,0,0,0,0.00,0.00,0.00,0.00
2014-09-09 02:00:00,2,43875,0,0.00,2,2,0,2,26179,50000,7694,46877,0,0,0,0,0.00,0.00,0.00,0.00
2014-09-09 02:10:00,2,39628,0,0.00,2,2,0,2,27122,50000,7945,38834,0,0,0,0,0.00,0.00,0.00,0.00
2014-09-09 02:20:00,2,32112,0,0.00,2,2,0,2,21104,50000,7173,30660,0,0,0,0,0.00,0.00,0.00,0.00
2014-09-09 02:30:00,1,37647,0,0.00,0,2,1,2,29361,50000,6908,35349,0,0,0,0,0.00,0.00,0.00,0.00
2014-09-09 02:40:00,0,46165,0,0.00,0,0,0,0,33543,50000,4874,48149,0,0,0,0,0.00,0.00,0.00,0.00
2014-09-09 02:50:00,0,43347,0,0.00,0,0,0,0,33223,50000,6446,44548,0,0,0,0,0.00,0.00,0.00,0.00
2014-09-09 03:00:00,0,40264,0,0.00,0,0,0,0,26482,50000,7450,42679,0,0,0,0,0.00,0.00,0.00,0.00
2014-09-09 03:10:00,0,47541,0,0.00,0,0,0,0,38532,50000,3585,50000,0,0,0,0,0.00,0.00,0.00,0.00
2014-09-09 03:20:00,0,45309,0,0.00,0,0,0,0,34260,50000,5093,47106,0,0,0,0,0.00,0.00,0.00,0.00
2014-09-09 03:30:00,0,40192,0,0.00,0,0,0,0,29844,49472,6357,38428,0,0,0,0,0.00,0.00,0.00,0.00
2014-09-09 03:40:00,0,40657,0,0.00,0,0,0,0,13136,50000,10941,45122,0,0,0,0,0.00,0.00,0.00,0.00
2014-09-09 03:50:00,0,46202,0,0.00,0,0,0,0,33672,50000,5394,49490,0,0,0,0,0.00,0.00,0.00,0.00
2014-09-09 04:00:00,0,45374,0,0.00,0,0,0,0,38083,50000,4238,45886,0,0,0,0,0.00,0.00,0.00,0.00
2014-09-09 04:10:00,0,48116,0,0.00,0,0,0,0,37161,50000,4067,50000,0,0,0,0,0.00,0.00,0.00,0.00
2014-09-09 04:20:00,0,48217,0,0.00,0,0,0,0,41172,50000,3229,50000,0,0,0,0,0.00,0.00,0.00,0.00
2014-09-09 04:30:00,0,48421,0,0.00,0,0,0,0,42662,50000,2651,49721,0,0,0,0,0.00,0.00,0.00,0.00
2014-09-09 04:40:00,0,49411,0,0.00,0,0,0,0,47078,50000,1009,49945,0,0,0,0,0.00,0.00,0.00,0.00
2014-09-09 04:50:00,0,46531,0,0.00,0,0,0,0,35263,50000,4720,49628,0,0,0,0,0.00,0.00,0.00,0.00
2014-09-09 05:00:00,0,48654,0,0.00,0,0,0,0,43811,50000,1912,49644,0,0,0,0,0.00,0.00,0.00,0.00
2014-09-09 05:10:00,0,41974,0,0.00,0,0,0,0,26226,50000,8397,44454,0,0,0,0,0.00,0.00,0.00,0.00
2014-09-09 05:20:00,0,46930,0,0.00,0,0,0,0,43101,50000,2482,48046,0,0,0,0,0.00,0.00,0.00,0.00
2014-09-09 05:30:00,0,47300,0,0.00,0,0,0,0,41908,50000,2861,48018,0,0,0,0,0.00,0.00,0.00,0.00
2014-09-09 05:40:00,0,49674,0,0.00,0,0,0,0,47510,50000,757,50000,0,0,0,0,0.00,0.00,0.00,0.00
2014-09-09 05:50:00,0,48964,0,0.00,0,0,0,0,43861,50000,1863,50000,0,0,0,0,0.00,0.00,0.00,0.00
2014-09-09 06:00:00,0,48898,0,0.00,0,0,0,0,44076,50000,1781,49733,0,0,0,0,0.00,0.00,0.00,0.00
2014-09-09 06:10:00,0,47284,0,0.00,0,0,0,0,34750,50000,4600,49540,0,0,0,0,0.00,0.00,0.00,0.00
2014-09-09 06:20:00,0,47164,0,0.00,0,0,0,0,38587,50000,4204,49896,0,0,0,0,0.00,0.00,0.00,0.00
2014-09-09 06:30:00,0,48572,0,0.00,0,0,0,0,41490,50000,2496,49802,0,0,0,0,0.00,0.00,0.00,0.00
2014-09-09 06:40:00,0,49083,0,0.00,0,0,0,0,45574,50000,1512,50000,0,0,0,0,0.00,0.00,0.00,0.00
2014-09-09 06:50:00,0,49450,0,0.00,0,0,0,0,47838,50000,856,50000,0,0,0,0,0.00,0.00,0.00,0.00
2014-09-09 07:00:00,0,46212,0,0.00,0,0,0,0,38021,50000,4343,48452,0,0,0,0,0.00,0.00,0.00,0.00
2014-09-09 07:10:00,0,47950,0,0.00,0,0,0,0,41801,50000,2890,49723,0,0,0,0,0.00,0.00,0.00,0.00
2014-09-09 07:20:00,0,48888,0,0.00,0,0,0,0,45284,50000,1518,49618,0,0,0,0,0.00,0.00,0.00,0.00
2014-09-09 07:30:00,0,45196,0,0.00,0,0,0,0,29467,50000,6856,48935,0,0,0,0,0.00,0.00,0.00,0.00
2014-09-09 07:40:00,0,41329,0,0.00,0,0,0,0,20972,50000,10067,46940,0,0,0,0,0.00,0.00,0.00,0.00
2014-09-09 07:50:00,0,49807,0,0.00,0,0,0,0,48281,50000,513,50000,0,0,0,0,0.00,0.00,0.00,0.00
2014-09-09 08:00:00,0,49703,0,0.00,0,0,0,0,47027,50000,892,50000,0,0,0,0,0.00,0.00,0.00,0.00
2014-09-09 08:10:00,0,49907,0,0.00,0,0,0,0,49072,50000,278,50000,0,0,0,0,0.00,0.00,0.00,0.00
2014-09-09 08:20:00,0,49889,0,0.00,0,0,0,0,48890,50000,333,50000,0,0,0,0,0.00,0.00,0.00,0.00
2014-09-09 08:30:00,0,47514,0,0.00,0,0,0,0,41130,50000,2855,48499,0,0,0,0,0.00,0.00,0.00,0.00
2014-09-09 08:40:00,0,49823,0,0.00,0,0,0,0,48231,50000,531,50000,0,0,0,0,0.00,0.00,0.00,0.00
2014-09-09 08:50:00,0,49450,0,0.00,0,0,0,0,45918,50000,1218,50000,0,0,0,0,0.00,0.00,0.00,0.00
2014-09-09 09:00:00,0,49442,0,0.00,0,0,0,0,47435,50000,900,50000,0,0,0,0,0.00,0.00,0.00,0.00
2014-09-09 09:10:00,0,49805,0,0.00,0,0,0,0,48114,50000,564,50000,0,0,0,0,0.00,0.00,0.00,0.00
2014-09-09 09:20:00,0,49676,0,0.00,0,0,0,0,48568,50000,564,50000,0,0,0,0,0.00,0.00,0.00,0.00
2014-09-09 09:30:00,0,48932,0,0.00,0,0,0,0,44916,50000,1777,49942,0,0,0,0,0.00,0.00,0.00,0.00
2014-09-09 09:40:00,0,49510,0,0.00,0,0,0,0,45579,50000,1318,50000,0,0,0,0,0.00,0.00,0.00,0.00
2014-09-09 09:50:00,0,48778,0,0.00,0,0,0,0,42109,50000,2334,50000,0,0,0,0,0.00,0.00,0.00,0.00
2014-09-09 10:00:00,0,49348,0,0.00,0,0,0,0,44455,50000,1644,50000,0,0,0,0,0.00,0.00,0.00,0.00
2014-09-09 10:10:00,0,50000,0,0.00,0,0,0,0,50000,50000,0,50000,0,0,0,0,0.00,0.00,0.00,0.00
2014-09-09 10:20:00,0,50000,0,0.00,0,0,0,0,50000,50000,0,50000,0,0,0,0,0.00,0.00,0.00,0.00
2014-09-09 10:30:00,0,50000,0,0.00,0,0,0,0,50000,50000,0,50000,0,0,0,0,0.00,0.00,0.00,0.00
2014-09-09 10:40:00,0,49468,0,0.00,0,0,0,0,45770,50000,1275,50000,0,0,0,0,0.00,0.00,0.00,0.00
2014-09-09 10:50:00,0,50000,0,0.00,0,0,0,0,50000,50000,0,50000,0,0,0,0,0.00,0.00,0.00,0.00
2014-09-09 11:00:00,0,50000,0,0.00,0,0,0,0,50000,50000,0,50000,0,0,0,0,0.00,0.00,0.00,0.00
2014-09-09 11:10:00,0,50000,0,0.00,0,0,0,0,50000,50000,0,50000,0,0,0,0,0.00,0.00,0.00,0.00
2014-09-09 11:20:00,0,50000,0,0.00,0,0,0,0,50000,50000,0,50000,0,0,0,0,0.00,0.00,0.00,0.00
2014-09-09 11:30:00,0,49929,0,0.00,0,0,0,0,49288,50000,214,50000,0,0,0,0,0.00,0.00,0.00,0.00
2014-09-09 11:40:00,0,50000,0,0.00,0,0,0,0,50000,50000,0,50000,0,0,0,0,0.00,0.00,0.00,0.00
2014-09-09 11:50:00,0,50000,0,0.00,0,0,0,0,50000,50000,0,50000,0,0,0,0,0.00,0.00,0.00,0.00
2014-09-09 12:00:00,0,50000,0,0.00,0,0,0,0,50000,50000,0,50000,0,0,0,0,0.00,0.00,0.00,0.00
2014-09-09 12:10:00,0,50000,0,0.00,0,0,0,0,50000,50000,0,50000,0,0,0,0,0.00,0.00,0.00,0.00
2014-09-09 12:20:00,0,50000,0,0.00,0,0,0,0,50000,50000,0,50000,0,0,0,0,0.00,0.00,0.00,0.00
2014-09-09 12:30:00,0,50000,0,0.00,0,0,0,0,50000,50000,0,50000,0,0,0,0,0.00,0.00,0.00,0.00
2014-09-09 12:40:00,0,50000,0,0.00,0,0,0,0,50000,50000,0,50000,0,0,0,0,0.00,0.00,0.00,0.00
2014-09-09 12:50:00,0,50000,0,0.00,0,0,0,0,50000,50000,0,50000,0,0,0,0,0.00,0.00,0.00,0.00
2014-09-09 13:00:00,0,50000,0,0.00,0,0,0,0,50000,50000,0,50000,0,0,0,0,0.00,0.00,0.00,0.00
2014-09-09 13:10:00,0,50000,0,0.00,0,0,0,0,50000,50000,0,50000,0,0,0,0,0.00,0.00,0.00,0.00
2014-09-09 13:20:00,0,50000,0,0.00,0,0,0,0,50000,50000,0,50000,0,0,0,0,0.00,0.00,0.00,0.00
2014-09-09 13:30:00,0,50000,0,0.00,0,0,0,0,50000,50000,0,50000,0,0,0,0,0.00,0.00,0.00,0.00
2014-09-09 13:40:00,0,50000,0,0.00,0,0,0,0,50000,50000,0,50000,0,0,0,0,0.00,0.00,0.00,0.00
2014-09-09 13:50:00,0,50000,0,0.00,0,0,0,0,50000,50000,0,50000,0,0,0,0,0.00,0.00,0.00,0.00
2014-09-09 14:00:00,0,50000,0,0.00,0,0,0,0,50000,50000,0,50000,0,0,0,0,0.00,0.00,0.00,0.00
2014-09-09 14:10:00,0,50000,0,0.00,0,0,0,0,50000,50000,0,50000,0,0,0,0,0.00,0.00,0.00,0.00
2014-09-09 14:20:00,0,50000,0,0.00,0,0,0,0,50000,50000,0,50000,0,0,0,0,0.00,0.00,0.00,0.00
2014-09-09 14:30:00,0,50000,0,0.00,0,0,0,0,50000,50000,0,50000,0,0,0,0,0.00,0.00,0.00,0.00
2014-09-09 14:40:00,0,50000,0,0.00,0,0,0,0,50000,50000,0,50000,0,0,0,0,0.00,0.00,0.00,0.00
2014-09-09 14:50:00,0,50000,0,0.00,0,0,0,0,50000,50000,0,50000,0,0,0,0,0.00,0.00,0.00,0.00
2014-09-09 15:00:00,0,50000,0,0.00,0,0,0,0,50000,50000,0,50000,0,0,0,0,0.00,0.00,0.00,0.00
2014-09-09 15:10:00,2,50000,0,0.00,0,2,1,2,50000,50000,0,50000,0,0,0,0,0.00,0.00,0.00,0.00
2014-09-09 15:20:00,2,50000,0,0.00,2,2,0,2,50000,50000,0,50000,0,0,0,0,0.00,0.00,0.00,0.00
2014-09-09 15:30:00,2,50000,0,0.00,2,2,0,2,50000,50000,0,50000,0,0,0,0,0.00,0.00,0.00,0.00
2014-09-09 15:40:00,2,48830,0,0.00,2,2,0,2,45920,50000,1500,49667,0,0,0,0,0.00,0.00,0.00,0.00
2014-09-09 15:50:00,2,49937,0,0.00,2,2,0,2,49371,50000,189,50000,0,0,0,0,0.00,0.00,0.00,0.00
2014-09-09 16:00:00,2,49896,0,0.00,2,2,0,2,48964,50000,311,50000,0,0,0,0,0.00,0.00,0.00,0.00
2014-09-09 16:10:00,2,48902,0,0.00,2,2,0,2,46038,50000,1616,49964,0,0,0,0,0.00,0.00,0.00,0.00
2014-09-09 16:20:00,2,48935,0,0.00,2,2,0,2,43760,50000,2008,50000,0,0,0,0,0.00,0.00,0.00,0.00
2014-09-09 16:30:00,2,47503,0,0.00,2,2,0,2,42998,50000,2546,48280,0,0,0,0,0.00,0.00,0.00,0.00
2014-09-09 16:40:00,2,49498,0,0.00,2,2,0,2,46555,50000,1053,50000,0,0,0,0,0.00,0.00,0.00,0.00
2014-09-09 16:50:00,2,49125,0,0.00,2,2,0,2,45908,50000,1320,49736,0,0,0,0,0.00,0.00,0.00,0.00
2014-09-09 17:00:00,2,49869,0,0.00,2,2,0,2,48687,50000,394,50000,0,0,0,0,0.00,0.00,0.00,0.00
2014-09-09 17:10:00,2,49355,0,0.00,2,2,0,2,46892,50000,1182,50000,0,0,0,0,0.00,0.00,0.00,0.00
2014-09-09 17:20:00,2,42599,0,0.00,2,2,0,2,30709,50000,6017,43511,0,0,0,0,0.00,0.00,0.00,0.00
2014-09-09 17:30:00,2,40777,0,0.00,2,2,0,2,31247,48488,6107,41087,0,0,0,0,0.00,0.00,0.00,0.00
2014-09-09 17:40:00,2,49964,0,0.00,2,2,0,2,49635,50000,110,50000,0,0,0,0,0.00,0.00,0.00,0.00
2014-09-09 17:50:00,2,49966,0,0.00,2,2,0,2,49800,50000,69,50000,0,0,0,0,0.00,0.00,0.00,0.00
2014-09-09 18:00:00,2,50000,0,0.00,2,2,0,2,50000,50000,0,50000,0,0,0,0,0.00,0.00,0.00,0.00
2014-09-09 18:10:00,2,50000,0,0.00,2,2,0,2,50000,50000,0,50000,0,0,0,0,0.00,0.00,0.00,0.00
2014-09-09 18:20:00,2,49111,0,0.00,2,2,0,2,44892,50000,1515,49901,0,0,0,0,0.00,0.00,0.00,0.00
2014-09-09 18:30:00,2,50000,0,0.00,2,2,0,2,50000,50000,0,50000,0,0,0,0,0.00,0.00,0.00,0.00
2014-09-09 18:40:00,2,49760,0,0.00,2,2,0,2,47605,50000,718,50000,0,0,0,0,0.00,0.00,0.00,0.00
2014-09-09 18:50:00,2,47002,0,0.00,2,2,0,2,38000,50000,4143,49462,0,0,0,0,0.00,0.00,0.00,0.00
2014-09-09 19:00:00,2,47270,0,0.00,2,2,0,2,43577,50000,2548,47840,0,0,0,0,0.00,0.00,0.00,0.00
2014-09-09 19:10:00,2,47715,0,0.00,2,2,0,2,41033,50000,2864,48699,0,0,0,0,0.00,0.00,0.00,0.00
2014-09-09 19:20:00,2,47354,0,0.00,2,2,0,2,40301,50000,3241,48640,0,0,0,0,0.00,0.00,0.00,0.00
2014-09-09 19:30:00,2,46674,0,0.00,2,2,0,2,43998,50000,2466,45458,0,0,0,0,0.00,0.00,0.00,0.00
2014-09-09 19:40:00,2,47663,0,0.00,2,2,0,2,44311,50000,1828,47767,0,0,0,0,0.00,0.00,0.00,0.00
2014-09-09 19:50:00,2,49381,0,0.00,2,2,0,2,47515,50000,972,50000,0,0,0,0,0.00,0.00,0.00,0.00
2014-09-09 20:00:00,2,50000,0,0.00,2,2,0,2,50000,50000,0,50000,0,0,0,0,0.00,0.00,0.00,0.00
2014-09-09 20:10:00,2,49575,0,0.00,2,2,0,2,47964,50000,634,50000,0,0,0,0,0.00,0.00,0.00,0.00
2014-09-09 20:20:00,2,49831,0,0.00,2,2,0,2,48386,50000,482,50000,0,0,0,0,0.00,0.00,0.00,0.00
2014-09-09 20:30:00,2,49129,0,0.00,2,2,0,2,45639,50000,1569,50000,0,0,0,0,0.00,0.00,0.00,0.00
2014-09-09 20:40:00,2,45810,0,0.00,2,2,0,2,37962,49581,3621,47285,0,0,0,0,0.00,0.00,0.00,0.00
2014-09-09 20:50:00,2,49681,0,0.00,2,2,0,2,47211,50000,827,50000,0,0,0,0,0.00,0.00,0.00,0.00
2014-09-09 21:00:00,2,49094,0,0.00,2,2,0,2,43076,50000,2104,50000,0,0,0,0,0.00,0.00,0.00,0.00
2014-09-09 21:10:00,2,50000,0,0.00,2,2,0,2,50000,50000,0,50000,0,0,0,0,0.00,0.00,0.00,0.00
2014-09-09 21:20:00,2,49916,0,0.00,2,2,0,2,49262,50000,220,50000,0,0,0,0,0.00,0.00,0.00,0.00
2014-09-09 21:30:00,2,48335,0,0.00,2,2,0,2,42004,50000,2498,49504,0,0,0,0,0.00,0.00,0.00,0.00
2014-09-09 21:40:00,2,47707,0,0.00,2,2,0,2,43185,50000,2315,48156,0,0,0,0,0.00,0.00,0.00,0.00
2014-09-09 21:50:00,2,48234,0,0.00,2,2,0,2,46028,50000,1615,48572,0,0,0,0,0.00,0.00,0.00,0.00
2014-09-09 22:00:00,2,46949,0,0.00,0,2,1,2,43265,50000,2555,47568,0,0,0,0,0.00,0.00,0.00,0.00
2014-09-09 22:10:00,2,44466,0,0.00,2,2,0,2,35801,50000,4585,45690,0,0,0,0,0.00,0.00,0.00,0.00
2014-09-09 22:20:00,2,47347,0,0.00,2,2,0,2,42029,50000,2614,48116,0,0,0,0,0.00,0.00,0.00,0.00
2014-09-09 22:30:00,2,48062,0,0.00,2,2,0,2,41004,50000,3159,50000,0,0,0,0,0.00,0.00,0.00,0.00
2014-09-09 22:40:00,2,47586,0,0.00,2,2,0,2,42493,50000,2642,48954,0,0,0,0,0.00,0.00,0.00,0.00
2014-09-09 22:50:00,2,47827,0,0.00,2,2,0,2,39711,50000,3403,50000,0,0,0,0,0.00,0.00,0.00,0.00
2014-09-09 23:00:00,2,49077,0,0.00,0,2,1,2,47148,50000,1170,49704,0,0,0,0,0.00,0.00,0.00,0.00
2014-09-09 23:10:00,1,49314,0,0.00,0,2,1,2,45276,50000,1453,49988,0,0,0,0,0.00,0.00,0.00,0.00
2014-09-09 23:20:00,0,48800,0,0.00,0,2,1,0,44039,50000,2032,50000,0,0,0,0,0.00,0.00,0.00,0.00
2014-09-09 23:30:00,2,47582,0,0.00,2,2,0,2,41460,50000,3071,49186,0,0,0,0,0.00,0.00,0.00,0.00
2014-09-09 23:40:00,2,48427,0,0.00,2,2,0,2,40383,50000,2872,50000,0,0,0,0,0.00,0.00,0.00,0.00
2014-09-09 23:50:00,2,49269,0,0.00,2,2,0,2,46157,50000,1348,50000,0,0,0,0,0.00,0.00,0.00,0.00
